Simultaneous Nadir Overpasses (SNOs) Predictions

Prediction of SNOs between GOES-15 and TERRA Satellite Orbit:

Table of predicted SNOs for the next 14.0 days since TLE Epoch: 3/26/2012
Index Date Time (GOES-15) GOES-15 Lat,Lon TERRA Lat,Lon Distance(km) Time Diff (sec)
1 03/27/2012 19:21:19 -0.08,-135.02 -0.58,-132.64 269.57 80
2 03/28/2012 07:40:02 0.08,-134.96 -0.51,-137.84 326.70 80
3 03/30/2012 07:30:28 0.09,-134.89 0.08,-134.86 2.71 80
4 04/01/2012 07:18:14 0.09,-134.81 0.68,-131.89 331.39 80
5 04/01/2012 19:36:49 -0.09,-134.83 0.41,-137.05 252.69 80
6 04/03/2012 19:27:15 -0.09,-134.75 -0.20,-134.08 75.71 80
7 04/05/2012 19:15:01 -0.09,-134.66 -0.83,-131.11 403.41 80
8 04/06/2012 07:33:45 0.09,-134.60 -0.25,-136.30 193.43 80
9 04/08/2012 07:24:10 0.09,-134.50 0.32,-133.32 133.40 80
10 04/08/2012 19:42:45 -0.09,-134.51 0.76,-138.48 451.27 80




NCC Satellite Simultaneous Nadir Overpasses (SNOs) Prediction Service
